TimeEST,TemperatureF,Dew PointF,Humidity,Sea Level PressureIn,VisibilityMPH,Wind Direction,Wind SpeedMPH,Gust SpeedMPH,PrecipitationIn,Events,Conditions,WindDirDegrees,DateUTC
12:51 AM,35.1,25.0,67,30.58,10.0,Calm,Calm,-,N/A,,Overcast,0,2012-11-14 05:51:00
1:51 AM,34.0,26.1,73,30.58,10.0,Calm,Calm,-,N/A,,Overcast,0,2012-11-14 06:51:00
2:51 AM,34.0,26.1,73,30.58,10.0,Calm,Calm,-,N/A,,Overcast,0,2012-11-14 07:51:00
3:51 AM,35.1,24.1,64,30.58,10.0,Calm,Calm,-,N/A,,Overcast,0,2012-11-14 08:51:00
4:51 AM,35.1,26.1,70,30.59,10.0,Calm,Calm,-,N/A,,Overcast,0,2012-11-14 09:51:00
5:51 AM,35.1,25.0,67,30.60,10.0,Calm,Calm,-,N/A,,Overcast,0,2012-11-14 10:51:00
6:51 AM,35.1,25.0,67,30.61,10.0,Calm,Calm,-,N/A,,Overcast,0,2012-11-14 11:51:00
7:51 AM,35.1,26.1,70,30.61,10.0,Calm,Calm,-,N/A,,Overcast,0,2012-11-14 12:51:00
8:51 AM,36.0,27.0,70,30.62,10.0,SE,4.6,-,N/A,,Overcast,140,2012-11-14 13:51:00
9:51 AM,37.0,27.0,67,30.63,10.0,Calm,Calm,-,N/A,,Overcast,0,2012-11-14 14:51:00
10:51 AM,37.9,25.0,60,30.62,10.0,ESE,5.8,-,N/A,,Overcast,120,2012-11-14 15:51:00
11:51 AM,39.0,27.0,62,30.60,10.0,ESE,5.8,-,N/A,,Overcast,110,2012-11-14 16:51:00
12:51 PM,39.2,26.6,61,30.55,10.0,ENE,5.8,-,N/A,,Overcast,60,2012-11-14 17:51:00
1:51 PM,39.0,26.1,60,30.55,10.0,East,6.9,-,N/A,,Overcast,90,2012-11-14 18:51:00
2:51 PM,39.0,26.1,60,30.53,10.0,East,6.9,-,N/A,,Overcast,80,2012-11-14 19:51:00
3:51 PM,37.9,26.1,62,30.53,10.0,ENE,8.1,-,N/A,,Overcast,70,2012-11-14 20:51:00
4:51 PM,37.4,24.8,60,30.50,10.0,East,5.8,-,N/A,,Overcast,90,2012-11-14 21:51:00
5:51 PM,37.0,25.0,62,30.51,10.0,East,6.9,-,N/A,,Mostly Cloudy,90,2012-11-14 22:51:00
6:51 PM,35.1,25.0,67,30.51,10.0,ESE,4.6,-,N/A,,Mostly Cloudy,120,2012-11-14 23:51:00
7:51 PM,34.0,25.0,70,30.51,10.0,SE,5.8,-,N/A,,Mostly Cloudy,130,2012-11-15 00:51:00
7:56 PM,33.8,26.6,75,30.49,10.0,SE,4.6,-,N/A,,Mostly Cloudy,140,2012-11-15 00:56:00
8:13 PM,33.8,24.8,70,30.48,10.0,SE,3.5,-,N/A,,Mostly Cloudy,140,2012-11-15 01:13:00
8:51 PM,32.0,25.0,75,30.50,10.0,SE,4.6,-,N/A,,Mostly Cloudy,130,2012-11-15 01:51:00
9:51 PM,34.0,25.0,70,30.48,10.0,East,3.5,-,N/A,,Mostly Cloudy,90,2012-11-15 02:51:00
10:51 PM,33.1,25.0,72,30.47,10.0,East,3.5,-,N/A,,Mostly Cloudy,100,2012-11-15 03:51:00
11:51 PM,32.0,25.0,75,30.46,10.0,East,3.5,-,N/A,,Mostly Cloudy,80,2012-11-15 04:51:00